Content
SEND FEEDBACK

Daily
Averages
Monthly
Summary
United States of America

JAMESTOWN, NEW YORK


Home > North America > United States > New York
Elevation: 1725 feet     Latitude: 42 09N     Longitude: 079 15W

WEATHER
 
SELECT A DAY
Number of Records: 344,251;   Date Range: 1/1/95 - 8/28/14
 
SHARE

PRINT THIS DATA

[ ← Previous Day ]
WEATHER ALMANAC - MAY 4, 2013
[ Next Day → ]
[ °C ]   °F
Weather ElementAverageHighLow
Temperature59.3 °F71.6 °F (5:15 pm)46.4 °F (5:55 am)
Dewpoint34.3 °F37.4 °F (8:15 pm)30.2 °F (12:35 pm)
Humidity41.6 %66 % (5:55 am)23 % (2:55 pm)
Barometer30.21 in30.27 in (7:35 am)30.13 in (5:55 pm)
Wind Speed7.5 mph15 mph (10:55 am)
Wind Gust20.7 mph (10:55 am)
Weather ElementAverage
Visibility10 mi
Wind DirectionSSE (149.9 °)

Weather ElementTotal
Precipitation---
Heating Degree Days6 (Base 65)
Growing Degree Days9 (Base 50)
Averaged from 71 records on May 4, 2013
WEATHER CONDITIONS BREAKOUT
WIND DIRECTION BREAKOUT
WEATHER BY HOUR - MAY 4, 2013
[ °C ]   °F
Local TimeTemperatureDewpointHumidityBarometerVisibilityWind DirectionWind SpeedGust SpeedPrecipitationEventsConditions
12:35 AM57.2 °F35.6 °F44 %30.25 in10.0 miSouth (170°)9.2 mphClear
12:55 AM55.4 °F35.6 °F47 %30.25 in10.0 miSouth (170°)9.2 mphClear
1:15 AM55.4 °F35.6 °F47 %30.25 in10.0 miSouth (170°)8.1 mphClear
1:35 AM55.4 °F35.6 °F47 %30.25 in10.0 miSouth (180°)9.2 mph17.3 mphClear
1:55 AM55.4 °F35.6 °F47 %30.25 in10.0 miSSE (160°)9.2 mphClear
2:15 AM53.6 °F35.6 °F51 %30.24 in10.0 miSouth (170°)9.2 mph17.3 mphClear
2:35 AM53.6 °F35.6 °F51 %30.24 in10.0 miSouth (170°)6.9 mphClear
2:55 AM53.6 °F35.6 °F51 %30.24 in10.0 miSSE (160°)9.2 mphClear
3:15 AM51.8 °F35.6 °F54 %30.23 in10.0 miSouth (170°)11.5 mphClear
3:35 AM51.8 °F35.6 °F54 %30.23 in10.0 miSouth (170°)10.4 mphClear
3:55 AM51.8 °F35.6 °F54 %30.24 in10.0 miSSE (160°)8.1 mphClear
4:15 AM50.0 °F35.6 °F58 %30.24 in10.0 miSSE (160°)10.4 mphClear
4:35 AM48.2 °F35.6 °F62 %30.24 in10.0 miSouth (170°)9.2 mphClear
4:55 AM48.2 °F35.6 °F62 %30.24 in10.0 miSouth (170°)8.1 mphClear
5:15 AM48.2 °F35.6 °F62 %30.24 in10.0 miSouth (170°)8.1 mphClear
5:35 AM48.2 °F35.6 °F62 %30.24 in10.0 miSouth (180°)5.8 mphClear
5:55 AM46.4 °F35.6 °F66 %30.25 in10.0 miSSE (160°)8.1 mphClear
6:15 AM46.4 °F35.6 °F66 %30.25 in10.0 miSSE (160°)6.9 mphClear
6:35 AM46.4 °F35.6 °F66 %30.26 in10.0 miSSE (150°)6.9 mphClear
6:55 AM46.4 °F35.6 °F66 %30.26 in10.0 miSSE (150°)8.1 mphClear
7:15 AM46.4 °F35.6 °F66 %30.26 in10.0 miSSE (160°)8.1 mphClear
7:35 AM48.2 °F35.6 °F62 %30.27 in10.0 miSSE (150°)8.1 mphClear
7:55 AM48.2 °F35.6 °F62 %30.27 in10.0 miSSE (150°)11.5 mphClear
8:15 AM50.0 °F35.6 °F58 %30.27 in10.0 miSE (140°)8.1 mphClear
8:35 AM51.8 °F35.6 °F54 %30.27 in10.0 miSE (140°)9.2 mph16.1 mphClear
8:55 AM51.8 °F35.6 °F54 %30.26 in10.0 miSSE (150°)11.5 mph17.3 mphClear
9:15 AM53.6 °F35.6 °F51 %30.26 in10.0 miSSE (150°)11.5 mphClear
9:35 AM53.6 °F35.6 °F51 %30.26 in10.0 miSSE (160°)10.4 mphClear
9:55 AM55.4 °F35.6 °F47 %30.26 in10.0 miSSE (160°)9.2 mphClear
10:15 AM57.2 °F35.6 °F44 %30.26 in10.0 miSSE (160°)13.8 mphClear
10:35 AM57.2 °F33.8 °F41 %30.25 in10.0 miSE (130°)11.5 mph17.3 mphClear
10:55 AM59.0 °F32.0 °F36 %30.25 in10.0 miSSE (150°)15.0 mph20.7 mphClear
11:15 AM60.8 °F33.8 °F36 %30.25 in10.0 miSE (140°)11.5 mph17.3 mphClear
11:35 AM60.8 °F33.8 °F36 %30.25 in10.0 miSSE (160°)8.1 mphClear
11:55 AM62.6 °F33.8 °F34 %30.24 in10.0 miSE (130°)9.2 mph17.3 mphClear
12:15 PM62.6 °F33.8 °F34 %30.23 in10.0 miSouth (180°)12.7 mphClear
12:35 PM64.4 °F30.2 °F28 %30.23 in10.0 miSouth (170°)10.4 mphClear
12:55 PM66.2 °F33.8 °F30 %30.22 in10.0 miSSE (150°)8.1 mphClear
1:15 PM66.2 °F30.2 °F26 %30.21 in10.0 miSSE (150°)12.7 mph17.3 mphClear
1:35 PM66.2 °F32.0 °F28 %30.21 in10.0 miSSE (160°)4.6 mphClear
1:55 PM66.2 °F30.2 °F26 %30.20 in10.0 miCalmClear
2:15 PM68.0 °F30.2 °F24 %30.19 in10.0 miSE (130°)8.1 mph16.1 mphClear
2:35 PM68.0 °F30.2 °F24 %30.19 in10.0 miEast (90°)9.2 mphClear
2:55 PM69.8 °F30.2 °F23 %30.18 in10.0 miSouth (170°)5.8 mphClear
3:15 PM69.8 °F30.2 °F23 %30.17 in10.0 miSouth (190°)9.2 mphClear
3:35 PM69.8 °F30.2 °F23 %30.17 in10.0 miESE (120°)10.4 mphClear
3:55 PM69.8 °F32.0 °F25 %30.16 in10.0 miSE (140°)4.6 mphClear
4:15 PM69.8 °F30.2 °F23 %30.15 in10.0 miSouth (170°)4.6 mphClear
4:35 PM69.8 °F30.2 °F23 %30.15 in10.0 miSE (130°)5.8 mphClear
4:55 PM69.8 °F30.2 °F23 %30.15 in10.0 miSSE (150°)6.9 mphClear
5:15 PM71.6 °F33.8 °F25 %30.14 in10.0 miEast (90°)4.6 mphClear
5:35 PM71.6 °F32.0 °F23 %30.14 in10.0 miESE (120°)10.4 mphClear
5:55 PM71.6 °F33.8 °F25 %30.13 in10.0 miEast (100°)10.4 mphClear
6:15 PM69.8 °F30.2 °F23 %30.13 in10.0 miSSE (150°)3.5 mphClear
6:35 PM69.8 °F32.0 °F25 %30.13 in10.0 miSE (130°)5.8 mphClear
6:55 PM69.8 °F32.0 °F25 %30.13 in10.0 miSouth (170°)8.1 mphClear
7:15 PM69.8 °F33.8 °F27 %30.13 in10.0 miSouth (170°)4.6 mphClear
7:35 PM68.0 °F33.8 °F28 %30.14 in10.0 miSSE (160°)4.6 mphClear
7:55 PM66.2 °F33.8 °F30 %30.14 in10.0 miCalmClear
8:15 PM64.4 °F37.4 °F37 %30.15 in10.0 miNW (320°)4.6 mphClear
8:35 PM62.6 °F37.4 °F39 %30.15 in10.0 miCalmClear
8:55 PM62.6 °F37.4 °F39 %30.15 in10.0 miNW (310°)4.6 mphClear
9:15 PM62.6 °F37.4 °F39 %30.16 in10.0 miCalmClear
9:35 PM60.8 °F37.4 °F42 %30.17 in10.0 miCalmClear
9:55 PM60.8 °F35.6 °F39 %30.17 in10.0 miSouth (190°)3.5 mphClear
10:15 PM60.8 °F35.6 °F39 %30.18 in10.0 miSSW (210°)3.5 mphClear
10:35 PM60.8 °F35.6 °F39 %30.18 in10.0 miSouth (190°)3.5 mphClear
10:55 PM59.0 °F35.6 °F42 %30.18 in10.0 miSouth (170°)4.6 mphClear
11:15 PM57.2 °F35.6 °F44 %30.18 in10.0 miSouth (170°)5.8 mphClear
11:35 PM57.2 °F35.6 °F44 %30.18 in10.0 miSouth (170°)5.8 mphClear
11:55 PM57.2 °F37.4 °F48 %30.19 in10.0 miSouth (170°)5.8 mphClear
Hourly data recorded from KJHW, located miles away from Jamestown, New York







STORIES FROM OUR PARTNERS